Weather Roundup
Issued by NWS

Home | Current Version | Previous Version | Graphics & Text | Print | Product List | Glossary Off
Versions: 1 2 3 4 5 6 7 8 9 10 11 12 13 14 15 16 17 18 19 20 21 22 23 24 25 26 27 28 29 30 31 32 33 34 35 36 37 38 39 40 41 42 43 44 45 46 47 48 49 50

000
NZUS93 KARX 291810
HRRWXR

CURRENT HOURLY OBSERVATIONS ACROSS
MUCH OF THE UPPER MISSISSIPPI VALLEY
NATIONAL WEATHER SERVICE LA CROSSE WI
100 PM CDT TUE JUL 29 2014


...SOUTHEAST MINNESOTA...


CITY           SKY/WX    TMP DP  RH WIND       PRES   REMARKS
ROCHESTER      MOSUNNY   75  57  53 NW10      30.13F
ROCHESTER/MAYO MOCLDY    73  51  46 NW10G17   30.12F
WINONA         SUNNY     79  55  44 NW10G17   30.08F
AUSTIN         MOSUNNY   73  54  49 NW9G16    30.13F
ALBERT LEA     MOSUNNY   73  55  53 NW9       30.15F
DODGE CENTER   MOSUNNY   73  57  56 NW10      30.13F
PRESTON        MOSUNNY   73  62  68 NW9G16    30.13F
OWATONNA       MOSUNNY   73  55  53 W8        30.14F
FARIBAULT      MOSUNNY   79  48  34 NW10      30.14S
$$

...ELSEWHERE IN MINNESOTA...


CITY           SKY/WX    TMP DP  RH WIND       PRES   REMARKS
MINNEAPOLIS    PTSUNNY   78  55  44 W13       30.11F
INTNL FALLS    MOSUNNY   74  57  55 NW10      30.06F
DULUTH         PTSUNNY   70  58  65 W8        30.06F
RED WING       SUNNY     81  55  41 NW10G17   30.09S
REDWOOD FALLS  PTSUNNY   75  54  47 NW10G18   30.17F
MANKATO        PTSUNNY   73  52  46 NW10      30.15F
WORTHINGTON    PTSUNNY   70  52  52 N6        30.21F
FAIRMONT       PTSUNNY   73  54  49 NW8       30.17F
$$

...SOUTHWEST WISCONSIN...


CITY           SKY/WX    TMP DP  RH WIND       PRES   REMARKS
LA CROSSE      SUNNY     80  57  45 NW10      30.06F
PRAIRIE DU CHI MOSUNNY   78  51  38 NW10      30.08S
BOSCOBEL       MOSUNNY   81  56  42 NW12      30.07F
LONE ROCK      MOSUNNY   81  57  43 NW10      30.05F
PLATTEVILLE    MOSUNNY   78  55  44 NW12      30.08F
FORT MC COY    MOSUNNY   76  52  43 W9        30.07F
CAMP DOUGLAS   MOSUNNY   75  57  53 NW7       30.05F
VIROQUA        FAIR      75  58  54 NW12      30.09F
WIS DELLS      SUNNY     76  49  37 NW12      30.05F
$$

...ELSEWHERE IN WISCONSIN...


CITY           SKY/WX    TMP DP  RH WIND       PRES   REMARKS
MILWAUKEE      MOSUNNY   76  53  44 NW12      30.01F
MADISON        MOSUNNY   77  54  44 W7        30.04F
GREEN BAY      MOSUNNY   75  57  53 W10       29.99F
EAU CLAIRE     MOSUNNY   78  57  48 W7        30.06F
BLACK RVR FLS  FAIR      78  52  40 W9        30.06F
MEDFORD        MOSUNNY   71  55  57 NW10      30.06F
WAUSAU         MOSUNNY   74  54  49 NW13G22   30.03F
WIS RAPIDS     MOSUNNY   77  52  41 N13       30.06F
MARSHFIELD     MOSUNNY   75  53  46 W9        30.05F
RICE LAKE      PTSUNNY   73  56  56 NW5       30.09F
$$

...NORTHEAST IOWA...


CITY           SKY/WX    TMP DP  RH WIND       PRES   REMARKS
WATERLOO       PTSUNNY   75  58  55 VRB7      30.12F
DUBUQUE        MOSUNNY   75  57  53 N8        30.10F
DECORAH        MOSUNNY   73  57  56 N7G16     30.10F
MASON CITY     MOSUNNY   75  57  53 NW12      30.17F
CHARLES CITY   MOSUNNY   75  57  53 NW9G16    30.15S
OELWEIN        MOSUNNY   75  59  57 NW8       30.13F
$$

...ELSEWHERE IN IOWA...


CITY           SKY/WX    TMP DP  RH WIND       PRES   REMARKS
DES MOINES     MOSUNNY   76  54  46 NW13      30.16F
IOWA CITY      MOSUNNY   77  57  50 NW12G18   30.13F
FORT DODGE     PTSUNNY   72  55  56 N3        30.19S
MARSHALLTOWN   MOSUNNY   75  58  55 W8        30.15F
CEDAR RAPIDS   MOSUNNY   76  53  44 W14G20    30.12F
$$

...NORTHERN ILLINOIS...


CITY           SKY/WX    TMP DP  RH WIND       PRES   REMARKS
CHICAGO-OHARE  PTSUNNY   78  51  38 NW15G22   30.02F
DUPAGE         SUNNY     78  54  43 N15G23    30.03F
CHICAGO-MIDWAY MOSUNNY   79  53  40 N12       30.02F
MOLINE         NOT AVBL
ROCKFORD       MOSUNNY   78  57  48 N9        30.06F
STERLING       MOSUNNY   79  59  50 NW10G17   30.07F
PEORIA         SUNNY     79  55  43 NW10      30.10F
$$

NOTE: "FAIR" INDICATES FEW OR NO CLOUDS BELOW 12,000 FEET WITH NO
SIGNIFICANT WEATHER AND/OR OBSTRUCTIONS TO VISIBILITY. WIND
SPEEDS ARE IN MILES-PER-HOUR.



USA.gov is the U.S. government's official web portal to all federal, state and local government web resources and services.